Change the Weather History Date:

Wednesday, August 7, 2013

  Actual Average Record
Temperature  
Mean Temperature 81 °F -  
Max Temperature 89 °F 94 °F 109 °F (1951)
Min Temperature 73 °F 68 °F 60 °F (1961)
Cooling Degree Days 16    
Growing Degree Days 31 (Base 50)    
Moisture  
Dew Point 69 °F    
Average Humidity 66    
Maximum Humidity 88    
Minimum Humidity 49    
Precipitation  
Precipitation 0.01 in - - ()
Sea Level Pressure  
Sea Level Pressure 29.89 in    
Wind  
Wind Speed 12 mph (ENE)    
Max Wind Speed 21 mph    
Max Gust Speed 36 mph    
Visibility 10 miles    
Events Rain , Thunderstorm    
Averages and records for this station are not official NWS values.
T = Trace of Precipitation, MM = Missing Value Source: NWS Daily Summary

Daily Weather History Graph

Daily Weather History Graph

Search for Another Location

Airport or City:

Trip Planner

Search our weather history database for the weather conditions in past years. The results will help you decide how hot, cold, wet, or windy it might be!

Date:

Astronomy

Aug. 07, 2013 Rise Set
Actual Time 6:45 AM CDT 8:34 PM CDT
Civil Twilight 6:17 AM CDT 9:02 PM CDT
Nautical Twilight 5:43 AM CDT 9:36 PM CDT
Astronomical Twilight 5:06 AM CDT 10:12 PM CDT
Moon 7:32 AM CDT (8/7) 8:46 PM CDT (8/7)
Length of Visible Light 14h 45m
Length of Day
13h 49m
New Moon, 1% of the Moon is Illuminated
Aug 7
New Moon
Aug 14
First Quarter
Aug 20
Full
Aug 28
Last Quarter
Sep 5
New

Hourly Weather History & Observations

Time (CDT) Temp. Heat Index Dew Point Humidity Pressure Visibility Wind Dir Wind Speed Gust Speed Precip Events Conditions
12:10 AM 73.4 °F - 69.8 °F 88% 29.94 in 7.0 mi West 6.9 mph - N/A Rain , Thunderstorm Light Rain
12:30 AM 73.4 °F - 69.8 °F 88% 29.92 in 5.0 mi South 12.7 mph - N/A Rain , Thunderstorm Light Rain
12:50 AM 75.2 °F - 66.2 °F 73% 29.87 in 6.0 mi SSE 17.3 mph - 0.01 in Rain , Thunderstorm Light Rain
1:10 AM 75.2 °F - 66.2 °F 73% 29.88 in 10.0 mi South 12.7 mph - N/A Rain Light Rain
1:30 AM 75.2 °F - 64.4 °F 69% 29.85 in 9.0 mi SSW 15.0 mph 21.9 mph N/A Rain , Thunderstorm Light Rain
1:55 AM 80.6 °F 81.8 °F 62.6 °F 54% 29.83 in 10.0 mi SSW 20.7 mph 27.6 mph N/A Rain , Thunderstorm Light Thunderstorms and Rain
2:10 AM 80.6 °F 81.8 °F 62.6 °F 54% 29.81 in 10.0 mi SSW 12.7 mph 31.1 mph N/A Rain , Thunderstorm Light Rain
2:30 AM 80.6 °F 82.3 °F 64.4 °F 58% 29.82 in 10.0 mi WSW 16.1 mph 19.6 mph N/A Thunderstorm Scattered Clouds
2:50 AM 80.6 °F 81.5 °F 60.8 °F 51% 29.81 in 10.0 mi SSW 20.7 mph 32.2 mph N/A Rain Light Rain
3:10 AM 78.8 °F - 64.4 °F 61% 29.82 in 3.0 mi SSW 19.6 mph 35.7 mph 0.01 in Rain , Thunderstorm Light Thunderstorms and Rain
3:30 AM 80.6 °F 82.3 °F 64.4 °F 58% 29.82 in 10.0 mi SSW 16.1 mph - 0.01 in Rain , Thunderstorm Light Rain
3:50 AM 80.6 °F 82.7 °F 66.2 °F 61% 29.82 in 10.0 mi SW 12.7 mph - 0.01 in Thunderstorm Thunderstorm
4:10 AM 75.2 °F - 68.0 °F 78% 29.84 in 10.0 mi SW 11.5 mph - N/A   Mostly Cloudy
4:30 AM 77.0 °F - 66.2 °F 69% 29.85 in 10.0 mi SW 18.4 mph 26.5 mph N/A   Scattered Clouds
4:50 AM 75.2 °F - 66.2 °F 73% 29.84 in 10.0 mi WSW 17.3 mph 25.3 mph N/A   Clear
5:10 AM 75.2 °F - 66.2 °F 73% 29.83 in 10.0 mi West 9.2 mph - N/A   Clear
5:30 AM 73.4 °F - 68.0 °F 83% 29.82 in 10.0 mi NNW 3.5 mph - N/A   Clear
5:50 AM 75.2 °F - 66.2 °F 73% 29.79 in 10.0 mi NNW 12.7 mph - N/A Rain Light Rain
6:10 AM 77.0 °F - 64.4 °F 65% 29.79 in 10.0 mi NNW 17.3 mph - N/A Rain Light Rain
6:30 AM 77.0 °F - 66.2 °F 69% 29.84 in 10.0 mi North 9.2 mph - N/A Rain Light Rain
6:50 AM 75.2 °F - 68.0 °F 78% 29.88 in 10.0 mi East 9.2 mph - N/A Rain Light Rain
7:10 AM 73.4 °F - 68.0 °F 83% 29.88 in 10.0 mi NE 13.8 mph - N/A   Scattered Clouds
7:30 AM 75.2 °F - 68.0 °F 78% 29.90 in 10.0 mi NE 9.2 mph - N/A   Clear
7:50 AM 75.2 °F - 68.0 °F 78% 29.89 in 10.0 mi NNE 8.1 mph - N/A   Clear
8:10 AM 77.0 °F - 68.0 °F 74% 29.90 in 10.0 mi North 9.2 mph - N/A   Clear
8:30 AM 78.8 °F - 68.0 °F 69% 29.90 in 10.0 mi North 5.8 mph - N/A   Clear
8:50 AM 77.0 °F - 68.0 °F 74% 29.92 in 10.0 mi NE 3.5 mph - N/A   Clear
9:10 AM 77.0 °F - 68.0 °F 74% 29.92 in 10.0 mi East 8.1 mph - N/A   Clear
9:30 AM 77.0 °F - 69.8 °F 78% 29.93 in 10.0 mi NE 6.9 mph - N/A   Clear
9:50 AM 77.0 °F - 68.0 °F 74% 29.94 in 10.0 mi NNE 5.8 mph - N/A   Clear
10:10 AM 80.6 °F 83.2 °F 68.0 °F 65% 29.94 in 10.0 mi NNE 8.1 mph - N/A   Clear
10:30 AM 80.6 °F 83.2 °F 68.0 °F 65% 29.94 in 10.0 mi ENE 8.1 mph - N/A   Clear
10:50 AM 82.4 °F 85.4 °F 68.0 °F 62% 29.95 in 10.0 mi NE 8.1 mph - N/A   Clear
11:10 AM 82.4 °F 85.4 °F 68.0 °F 62% 29.95 in 10.0 mi NE 6.9 mph - N/A   Clear
11:30 AM 82.4 °F 85.4 °F 68.0 °F 62% 29.95 in 10.0 mi ENE 6.9 mph - N/A   Clear
11:50 AM 84.2 °F 87.3 °F 68.0 °F 58% 29.95 in 10.0 mi NE 8.1 mph - N/A   Clear
12:10 PM 84.2 °F 87.3 °F 68.0 °F 58% 29.94 in 10.0 mi NE 6.9 mph - N/A   Clear
12:30 PM 84.2 °F 86.6 °F 66.2 °F 55% 29.93 in 10.0 mi NE 9.2 mph - N/A   Clear
12:50 PM 86.0 °F 89.4 °F 68.0 °F 55% 29.93 in 10.0 mi ENE 9.2 mph - N/A   Clear
1:10 PM 86.0 °F 89.4 °F 68.0 °F 55% 29.93 in 10.0 mi East 9.2 mph - N/A   Clear
1:35 PM 86.0 °F 90.4 °F 69.8 °F 58% 29.92 in 10.0 mi East 10.4 mph - N/A   Clear
1:50 PM 87.8 °F 92.6 °F 69.8 °F 55% 29.92 in 10.0 mi ENE 11.5 mph - N/A   Clear
2:10 PM 89.6 °F 93.4 °F 68.0 °F 49% 29.92 in 10.0 mi NE 6.9 mph - N/A   Clear
2:30 PM 87.8 °F 91.4 °F 68.0 °F 52% 29.93 in 10.0 mi ENE 8.1 mph - N/A   Clear
2:50 PM 89.6 °F 93.4 °F 68.0 °F 49% 29.93 in 10.0 mi North 10.4 mph - N/A   Clear
3:10 PM 87.8 °F 91.4 °F 68.0 °F 52% 29.92 in 10.0 mi ENE 5.8 mph - N/A   Clear
3:30 PM 89.6 °F 93.4 °F 68.0 °F 49% 29.92 in 10.0 mi NE 8.1 mph - N/A   Clear
3:50 PM 89.6 °F 94.7 °F 69.8 °F 52% 29.92 in 10.0 mi ENE 10.4 mph - N/A   Clear
4:10 PM 89.6 °F 93.4 °F 68.0 °F 49% 29.91 in 10.0 mi NE 11.5 mph - N/A   Clear
4:30 PM 89.6 °F 96.2 °F 71.6 °F 55% 29.90 in 10.0 mi ENE 12.7 mph 17.3 mph N/A   Clear
4:50 PM 89.6 °F 96.2 °F 71.6 °F 55% 29.90 in 10.0 mi ENE 11.5 mph - N/A   Clear
5:10 PM 89.6 °F 96.2 °F 71.6 °F 55% 29.89 in 10.0 mi NE 11.5 mph - N/A   Clear
5:30 PM 89.6 °F 96.2 °F 71.6 °F 55% 29.89 in 10.0 mi ENE 12.7 mph - N/A   Clear
5:50 PM 89.6 °F 98.2 °F 73.4 °F 59% 29.88 in 10.0 mi ENE 13.8 mph 18.4 mph N/A   Clear
6:10 PM 87.8 °F 93.8 °F 71.6 °F 58% 29.88 in 10.0 mi East 13.8 mph - N/A   Clear
6:30 PM 87.8 °F 93.8 °F 71.6 °F 58% 29.87 in 10.0 mi ENE 15.0 mph - N/A   Clear
6:50 PM 86.0 °F 91.8 °F 71.6 °F 62% 29.87 in 10.0 mi NE 16.1 mph - N/A   Clear
7:10 PM 87.8 °F 95.6 °F 73.4 °F 62% 29.86 in 10.0 mi ENE 17.3 mph - N/A   Partly Cloudy
7:30 PM 86.0 °F 93.4 °F 73.4 °F 66% 29.86 in 10.0 mi ENE 15.0 mph - N/A   Partly Cloudy
7:50 PM 86.0 °F 93.4 °F 73.4 °F 66% 29.87 in 10.0 mi ENE 11.5 mph - N/A   Clear
8:10 PM 84.2 °F 90.9 °F 73.4 °F 70% 29.87 in 10.0 mi ENE 12.7 mph 17.3 mph N/A   Clear
8:30 PM 84.2 °F 89.6 °F 71.6 °F 66% 29.89 in 10.0 mi ENE 10.4 mph - N/A   Clear
8:50 PM 82.4 °F 88.2 °F 73.4 °F 74% 29.89 in 10.0 mi ENE 11.5 mph - N/A   Clear
9:10 PM 82.4 °F 88.2 °F 73.4 °F 74% 29.89 in 10.0 mi ENE 10.4 mph - N/A   Partly Cloudy
9:30 PM 82.4 °F 88.2 °F 73.4 °F 74% 29.90 in 10.0 mi ENE 9.2 mph - N/A   Partly Cloudy
9:50 PM 80.6 °F 85.4 °F 73.4 °F 79% 29.91 in 10.0 mi ENE 10.4 mph - N/A   Mostly Cloudy
10:10 PM 80.6 °F 85.4 °F 73.4 °F 79% 29.90 in 10.0 mi ENE 11.5 mph - N/A   Overcast
10:30 PM 80.6 °F 85.4 °F 73.4 °F 79% 29.90 in 10.0 mi ENE 12.7 mph - N/A   Overcast
10:50 PM 80.6 °F 85.4 °F 73.4 °F 79% 29.90 in 10.0 mi East 10.4 mph - N/A   Overcast
11:10 PM 80.6 °F 85.4 °F 73.4 °F 79% 29.90 in 10.0 mi East 11.5 mph - N/A   Overcast
11:35 PM 80.6 °F 85.4 °F 73.4 °F 79% 29.90 in 10.0 mi East 13.8 mph 18.4 mph N/A   Overcast
11:50 PM 78.8 °F - 73.4 °F 83% 29.90 in 9.0 mi East 11.5 mph - N/A   Overcast